Volver al catálogo

ATLAS 5 CENTAUR DEB

ActivoHEO
NORAD 45475·DEBRIS·🇺🇸 United States

Lanzado Oct 17, 2018 desde Cape Canaveral Space Force Station

Loading…

Próximos Pases (próximas 24 horas)

TLE

ActualizadoSource: Space-Track

Época: Sep 14, 2026, 11:31 UTC

1 45475U 18079BX  26257.47997069 -.00000174  00000-0  00000-0 0  9996
2 45475  13.4480  18.1755 4741974 351.8671   2.4890  1.84723190 46829

Sigue ATLAS 5 CENTAUR DEB en tiempo real con AllMySat

Download on the App Store